Location: Carrières
(48.9495°N, 2.0407°E)
Time: 06:31:24
(UTC+00:00)

Tiros 1 despin weight - Pass Details

Date: 23 April 2024
Orbit: 578 x 620 km, 48.2° (Epoch: 27 May)

Event Time Altitude Azimuth Distance (km) Brightness Sun altitude
Rises 17:03:12 0° 282° (WNW) 2,867 ? 17.3°
Reaches altitude 10° 17:05:46 10° 270° (W) 1,967 ? 16.9°
Maximum altitude 17:09:33 27° 213° (SSW) 1,197 ? 16.3°
Drops below altitude 10° 17:13:22 10° 156° (SSE) 1,976 ? 15.7°
Sets 17:15:56 0° 144° (SE) 2,882 ? 15.2°
